QPF
0.00 0.00 0.00 0.00 0.00 0.00 0.00 0.00 0.00 0.00 0.00 0.00 0.00 0.00 0.00 0.00 0.00 0.00 0.00 0.00 0.00 0.00 0.00 0.00 0.00 0.00 0.00 0.00 0.00 0.00 0.00 0.00 0.00 0.00 0.00 0.00 0.00 0.01 0.01 0.00 0.00 0.00 0.00 0.00
0.00 0.00 0.00 0.00 0.00 0.00 0.00 0.00 0.00 0.00 0.00 0.00 0.00 0.00 0.00 0.00 0.00 0.00 0.00 0.00 0.00 0.00 0.00 0.00 0.00 0.00 0.00 0.00 0.00 0.00 0.00 0.00 0.00 0.00 0.00 0.00 0.01 0.03 0.02 0.00 0.00 0.00 0.00 0.00
0.00 0.00 0.00 0.00 0.00 0.00 0.00 0.00 0.00 0.00 0.00 0.00 0.00 0.00 0.00 0.00 0.00 0.00 0.00 0.00 0.00 0.00 0.00 0.00 0.00 0.00 0.00 0.00 0.00 0.00 0.00 0.00 0.00 0.00 0.00 0.00 0.00 0.03 0.06 0.02 0.00 0.00 0.00 0.00
0.00 0.00 0.00 0.00 0.00 0.00 0.00 0.00 0.00 0.00 0.00 0.00 0.00 0.00 0.00 0.00 0.00 0.00 0.00 0.00 0.00 0.00 0.00 0.00 0.00 0.00 0.00 0.00 0.00 0.00 0.00 0.00 0.00 0.00 0.00 0.00 0.02 0.05 0.09 0.07 0.04 0.00 0.00 0.00
0.00 0.00 0.00 0.00 0.00 0.00 0.00 0.00 0.00 0.00 0.00 0.00 0.00 0.00 0.00 0.00 0.00 0.00 0.00 0.00 0.00 0.00 0.00 0.00 0.00 0.00 0.00 0.00 0.00 0.00 0.00 0.01 0.00 0.00 0.00 0.00 0.01 0.06 0.08 0.07 0.04 0.01 0.00 0.00
0.00 0.00 0.00 0.00 0.00 0.00 0.00 0.00 0.00 0.00 0.00 0.00 0.00 0.00 0.00 0.00 0.00 0.00 0.00 0.00 0.00 0.00 0.00 0.00 0.00 0.00 0.00 0.00 0.00 0.00 0.00 0.02 0.03 0.01 0.00 0.01 0.03 0.06 0.05 0.06 0.04 0.03 0.04 0.00
0.00 0.00 0.00 0.00 0.00 0.00 0.00 0.00 0.00 0.00 0.00 0.00 0.00 0.00 0.00 0.00 0.00 0.00 0.00 0.00 0.00 0.00 0.00 0.00 0.00 0.01 0.02 0.05 0.08 0.03 0.00 0.00 0.03 0.07 0.04 0.04 0.05 0.08 0.08 0.06 0.04 0.03 0.02 0.00
0.00 0.00 0.00 0.00 0.00 0.00 0.00 0.00 0.00 0.00 0.00 0.00 0.00 0.00 0.00 0.00 0.00 0.00 0.00 0.00 0.00 0.00 0.00 0.00 0.00 0.00 0.02 0.03 0.07 0.03 0.01 0.02 0.00 0.04 0.06 0.06 0.07 0.09 0.09 0.05 0.04 0.03 0.01 0.00
0.00 0.00 0.00 0.00 0.00 0.00 0.00 0.00 0.00 0.00 0.00 0.00 0.00 0.00 0.00 0.00 0.00 0.00 0.00 0.00 0.00 0.00 0.00 0.00 0.00 0.01 0.00 0.01 0.03 0.02 0.02 0.03 0.02 0.00 0.00 0.02 0.04 0.04 0.03 0.02 0.00 0.00 0.00 0.00
0.00 0.00 0.00 0.00 0.00 0.00 0.00 0.00 0.00 0.00 0.00 0.00 0.00 0.00 0.00 0.00 0.00 0.00 0.00 0.00 0.00 0.00 0.00 0.00 0.00 0.01 0.00 0.00 0.01 0.01 0.00 0.01 0.01 0.02 0.01 0.01 0.00 0.00 0.00 0.00 0.00 0.00 0.00 0.01
0.00 0.00 0.00 0.00 0.00 0.00 0.00 0.00 0.00 0.00 0.00 0.00 0.00 0.00 0.00 0.00 0.00 0.00 0.00 0.00 0.00 0.00 0.00 0.00 0.00 0.00 0.01 0.03 0.03 0.03 0.01 0.00 0.01 0.01 0.01 0.01 0.00 0.00 0.00 0.00 0.00 0.01 0.03 0.04
0.00 0.00 0.00 0.00 0.00 0.00 0.00 0.00 0.00 0.00 0.00 0.00 0.00 0.00 0.00 0.00 0.00 0.00 0.00 0.00 0.00 0.00 0.00 0.00 0.00 0.00 0.00 0.00 0.01 0.01 0.01 0.00 0.00 0.01 0.01 0.01 0.01 0.01 0.01 0.02 0.10 0.07 0.06 0.06
0.00 0.00 0.00 0.00 0.00 0.00 0.00 0.00 0.00 0.00 0.00 0.00 0.00 0.00 0.00 0.00 0.00 0.00 0.00 0.00 0.00 0.00 0.00 0.00 0.00 0.00 0.00 0.00 0.00 0.00 0.00 0.00 0.00 0.01 0.03 0.04 0.02 0.02 0.01 0.02 0.03 0.02 0.03 0.02
0.00 0.00 0.00 0.00 0.00 0.00 0.00 0.00 0.00 0.00 0.00 0.00 0.00 0.00 0.00 0.00 0.00 0.00 0.00 0.00 0.00 0.00 0.00 0.00 0.00 0.00 0.00 0.00 0.00 0.00 0.00 0.00 0.00 0.00 0.00 0.00 0.00 0.00 0.00 0.00 0.00 0.00 0.00 0.00
0.00 0.00 0.00 0.00 0.00 0.00 0.00 0.00 0.00 0.00 0.00 0.00 0.00 0.00 0.00 0.00 0.00 0.00 0.00 0.00 0.00 0.00 0.00 0.00 0.00 0.00 0.00 0.00 0.00 0.00 0.00 0.00 0.00 0.00 0.00 0.00 0.00 0.00 0.00 0.00 0.00 0.00 0.00 0.00
0.00 0.00 0.00 0.00 0.00 0.00 0.00 0.00 0.00 0.00 0.00 0.00 0.00 0.00 0.00 0.00 0.00 0.00 0.00 0.00 0.00 0.00 0.00 0.00 0.00 0.00 0.00 0.00 0.00 0.00 0.00 0.00 0.00 0.00 0.00 0.00 0.00 0.00 0.00 0.00 0.00 0.00 0.00 0.00
0.00 0.00 0.00 0.00 0.00 0.00 0.00 0.00 0.00 0.00 0.00 0.00 0.00 0.00 0.00 0.00 0.00 0.00 0.00 0.00 0.00 0.00 0.00 0.00 0.00 0.00 0.00 0.00 0.00 0.00 0.00 0.00 0.00 0.00 0.00 0.00 0.00 0.00 0.00 0.00 0.00 0.00 0.00 0.00
0.00 0.00 0.00 0.00 0.00 0.00 0.00 0.00 0.00 0.00 0.00 0.00 0.00 0.00 0.00 0.00 0.00 0.00 0.00 0.00 0.00 0.00 0.00 0.00 0.00 0.00 0.00 0.00 0.00 0.00 0.00 0.00 0.00 0.00 0.00 0.00 0.00 0.00 0.00 0.00 0.00 0.00 0.00 0.00
0.00 0.00 0.00 0.00 0.00 0.00 0.00 0.00 0.00 0.00 0.00 0.00 0.00 0.00 0.00 0.00 0.00 0.00 0.00 0.00 0.00 0.00 0.00 0.00 0.00 0.00 0.00 0.00 0.00 0.00 0.00 0.00 0.00 0.00 0.00 0.00 0.00 0.00 0.00 0.00 0.00 0.00 0.00 0.00
0.00 0.00 0.00 0.00 0.00 0.00 0.00 0.00 0.00 0.00 0.00 0.00 0.00 0.00 0.00 0.00 0.00 0.00 0.00 0.00 0.00 0.00 0.00 0.00 0.00 0.00 0.00 0.00 0.00 0.00 0.00 0.00 0.00 0.00 0.00 0.00 0.00 0.00 0.00 0.00 0.00 0.00 0.00 0.00
0.00 0.00 0.00 0.00 0.00 0.00 0.00 0.00 0.00 0.00 0.00 0.00 0.00 0.00 0.00 0.00 0.00 0.00 0.00 0.00 0.00 0.00 0.00 0.00 0.00 0.00 0.00 0.00 0.00 0.00 0.00 0.00 0.00 0.00 0.00 0.00 0.00 0.00 0.00 0.00 0.00 0.00 0.00 0.00
0.00 0.00 0.00 0.00 0.00 0.00 0.00 0.00 0.00 0.00 0.00 0.00 0.00 0.00 0.00 0.00 0.00 0.00 0.00 0.00 0.00 0.00 0.00 0.00 0.00 0.00 0.00 0.00 0.00 0.00 0.00 0.00 0.00 0.00 0.00 0.00 0.00 0.00 0.00 0.00 0.00 0.00 0.00 0.00
0.00 0.00 0.00 0.00 0.00 0.00 0.00 0.00 0.00 0.00 0.00 0.00 0.00 0.00 0.00 0.00 0.00 0.00 0.00 0.00 0.00 0.00 0.00 0.00 0.00 0.00 0.00 0.00 0.00 0.00 0.00 0.00 0.00 0.00 0.00 0.00 0.00 0.00 0.00 0.00 0.00 0.00 0.00 0.00
0.00 0.00 0.00 0.00 0.00 0.00 0.00 0.00 0.00 0.00 0.00 0.00 0.00 0.00 0.00 0.00 0.00 0.00 0.00 0.00 0.00 0.00 0.00 0.00 0.00 0.00 0.00 0.00 0.00 0.00 0.00 0.00 0.00 0.00 0.00 0.00 0.00 0.00 0.00 0.00 0.00 0.00 0.00 0.00
0.00 0.00 0.00 0.00 0.00 0.00 0.00 0.00 0.00 0.00 0.00 0.00 0.00 0.00 0.00 0.00 0.00 0.00 0.00 0.00 0.00 0.00 0.00 0.00 0.00 0.00 0.00 0.00 0.00 0.00 0.00 0.00 0.00 0.00 0.00 0.00 0.00 0.00 0.00 0.00 0.00 0.00 0.00 0.00
0.00 0.00 0.00 0.00 0.00 0.00 0.00 0.00 0.00 0.00 0.00 0.00 0.00 0.00 0.00 0.00 0.00 0.00 0.00 0.00 0.00 0.00 0.00 0.00 0.00 0.00 0.00 0.00 0.00 0.00 0.00 0.00 0.00 0.00 0.00 0.00 0.00 0.00 0.00 0.00 0.00 0.00 0.00 0.00
MSLP
1019.52 1019.91 1020.14 1020.40 1020.50 1020.51 1020.43 1020.18 1019.47 1018.56 1018.18 1018.06 1017.42 1016.60 1015.42 1014.72 1014.57 1014.85 1015.29 1015.69 1015.74 1016.06 1015.97 1015.57 1014.96 1014.26 1013.42 1012.53 1012.46 1012.53 1012.45 1012.20 1012.03 1011.99 1012.12 1012.14 1011.70 1011.36 1011.27 1011.09 1010.86 1011.24 1011.46 1011.71
1020.08 1020.44 1020.81 1020.87 1020.78 1020.63 1020.38 1020.24 1019.32 1018.49 1018.50 1018.72 1017.34 1016.23 1014.99 1014.30 1014.80 1015.50 1016.50 1016.95 1016.98 1016.73 1016.55 1016.27 1015.47 1015.12 1014.59 1014.21 1013.69 1012.88 1012.18 1011.86 1011.68 1011.66 1011.57 1011.59 1011.34 1011.04 1010.88 1010.90 1010.72 1010.88 1011.15 1011.46
1020.23 1020.93 1021.00 1020.94 1020.53 1020.02 1019.70 1019.56 1019.81 1020.18 1019.52 1018.05 1017.74 1016.02 1015.01 1015.01 1015.21 1015.76 1016.92 1017.61 1017.78 1017.50 1017.08 1016.79 1016.35 1016.15 1015.77 1015.31 1014.72 1013.81 1013.04 1011.89 1011.28 1011.15 1011.27 1011.28 1011.08 1010.84 1010.79 1010.83 1010.53 1010.88 1011.13 1011.33
1020.73 1021.05 1020.92 1020.67 1020.08 1019.75 1019.70 1019.93 1020.35 1020.47 1020.39 1019.75 1018.84 1018.01 1015.84 1015.69 1015.80 1016.61 1017.55 1017.91 1018.00 1017.84 1017.74 1017.53 1017.18 1016.98 1016.66 1016.10 1015.29 1014.43 1013.46 1012.60 1011.57 1010.83 1010.98 1010.97 1010.96 1010.73 1010.16 1010.62 1010.63 1010.85 1010.94 1011.25
1020.73 1020.61 1020.53 1020.20 1019.80 1019.93 1019.78 1019.98 1020.35 1020.51 1020.94 1020.62 1019.21 1019.12 1016.79 1016.58 1016.87 1017.32 1017.88 1018.33 1018.07 1017.92 1017.73 1017.62 1017.46 1017.20 1016.93 1016.52 1015.79 1014.84 1013.83 1012.65 1011.86 1010.90 1010.51 1010.65 1010.65 1010.41 1009.86 1010.70 1011.04 1010.51 1011.25 1011.40
1020.26 1020.41 1020.47 1020.03 1019.98 1020.04 1020.06 1020.09 1020.31 1020.54 1020.91 1020.67 1019.35 1019.30 1017.32 1017.34 1017.55 1017.78 1017.89 1017.79 1017.76 1017.84 1017.74 1017.53 1017.48 1017.39 1017.12 1016.58 1016.04 1015.11 1013.92 1012.84 1011.93 1010.96 1010.24 1010.28 1010.41 1010.54 1010.44 1010.23 1011.05 1010.89 1011.74 1012.01
1019.95 1019.92 1020.02 1020.17 1019.98 1019.79 1020.00 1020.39 1020.30 1020.73 1020.68 1019.97 1019.20 1019.34 1016.69 1016.78 1017.21 1017.60 1017.70 1017.54 1017.91 1017.64 1017.10 1017.02 1017.09 1017.11 1016.92 1016.43 1015.97 1015.07 1014.07 1013.06 1012.21 1010.73 1010.07 1009.95 1010.22 1010.17 1010.31 1010.37 1010.86 1011.23 1011.58 1012.03
1020.08 1019.83 1019.79 1019.87 1019.82 1019.79 1019.81 1020.39 1020.83 1021.33 1020.83 1019.71 1018.90 1018.11 1015.98 1015.96 1016.44 1016.81 1016.98 1016.83 1017.30 1016.98 1016.77 1016.84 1016.79 1016.87 1016.74 1016.48 1016.17 1015.37 1014.58 1013.66 1012.82 1011.98 1011.17 1011.20 1011.40 1011.22 1011.22 1011.34 1011.49 1012.24 1012.62 1012.91
1019.95 1019.54 1019.26 1019.53 1019.42 1019.80 1019.58 1020.21 1020.61 1021.00 1020.35 1020.04 1017.87 1016.13 1015.61 1015.61 1015.93 1016.00 1015.88 1015.91 1016.36 1016.01 1016.31 1016.48 1016.43 1016.59 1016.51 1016.54 1016.26 1015.74 1015.04 1014.37 1013.74 1012.96 1012.60 1012.55 1012.65 1012.32 1012.51 1012.55 1012.59 1013.12 1013.47 1013.66
1020.15 1020.02 1018.98 1019.24 1019.38 1019.32 1019.49 1020.02 1020.46 1020.89 1020.47 1019.47 1017.09 1015.75 1015.08 1015.24 1015.22 1014.99 1015.05 1015.32 1015.33 1015.43 1015.72 1015.75 1016.14 1016.44 1016.45 1016.60 1016.35 1015.89 1015.34 1014.92 1014.39 1013.95 1013.66 1013.46 1013.42 1013.25 1013.37 1013.35 1013.36 1013.58 1014.09 1014.13
1020.20 1020.21 1019.39 1019.07 1018.84 1018.55 1019.49 1019.50 1019.77 1019.95 1020.22 1019.62 1018.07 1014.98 1013.17 1013.73 1014.12 1014.26 1014.21 1014.41 1014.35 1014.85 1015.10 1015.38 1015.69 1016.07 1016.21 1016.30 1016.06 1015.86 1015.42 1015.15 1014.75 1014.47 1014.08 1013.90 1013.87 1013.91 1013.82 1013.77 1014.04 1014.23 1014.36 1014.47
1020.25 1020.38 1019.85 1018.58 1017.86 1017.81 1018.23 1018.41 1018.79 1019.70 1019.64 1019.41 1018.52 1014.78 1012.53 1012.76 1013.18 1013.42 1013.34 1013.34 1013.62 1014.11 1014.53 1014.90 1015.25 1015.53 1015.72 1015.85 1015.62 1015.65 1015.51 1015.25 1015.05 1014.90 1014.64 1014.45 1014.40 1014.30 1014.27 1014.37 1014.47 1014.43 1014.45 1014.62
1020.45 1020.69 1020.18 1018.81 1018.62 1018.38 1018.32 1018.00 1018.53 1019.01 1019.68 1019.18 1018.30 1013.94 1012.07 1011.98 1012.34 1012.41 1012.58 1012.73 1013.06 1013.55 1014.17 1014.62 1015.01 1015.36 1015.66 1015.82 1015.74 1015.65 1015.73 1015.59 1015.31 1014.99 1014.98 1014.83 1014.63 1014.64 1014.47 1014.29 1014.37 1014.34 1014.19 1014.34
1020.97 1020.75 1020.54 1019.72 1018.51 1018.45 1018.39 1018.14 1018.16 1018.73 1019.34 1018.04 1015.81 1013.24 1012.01 1011.71 1011.62 1011.52 1011.60 1011.90 1012.45 1013.10 1013.67 1014.24 1014.78 1015.20 1015.52 1015.78 1015.80 1015.76 1015.81 1015.90 1015.74 1015.48 1015.42 1015.23 1015.09 1014.99 1014.82 1014.63 1014.66 1014.68 1014.72 1014.80
1021.34 1020.89 1020.54 1019.79 1018.84 1018.28 1017.52 1017.25 1017.54 1017.53 1017.32 1017.16 1013.98 1013.29 1011.86 1011.50 1011.28 1010.83 1010.56 1010.96 1011.73 1012.46 1013.22 1013.74 1014.30 1014.87 1015.18 1015.48 1015.68 1015.73 1015.77 1015.83 1015.77 1015.69 1015.70 1015.69 1015.52 1015.34 1015.26 1015.17 1015.07 1014.94 1014.93 1014.96
1020.92 1020.90 1020.47 1019.37 1017.99 1017.39 1016.36 1015.60 1015.67 1015.67 1015.63 1015.09 1014.33 1012.99 1011.72 1011.14 1010.58 1010.32 1010.14 1010.52 1011.12 1011.64 1012.32 1012.85 1013.51 1014.08 1014.68 1015.11 1015.50 1015.62 1015.70 1015.69 1015.60 1015.62 1015.65 1015.64 1015.63 1015.58 1015.58 1015.53 1015.48 1015.39 1015.36 1015.24
1020.75 1021.10 1021.12 1019.40 1017.96 1016.99 1015.11 1013.01 1013.25 1013.62 1013.17 1013.21 1013.36 1010.80 1011.13 1010.79 1010.40 1010.22 1010.24 1010.27 1010.54 1010.97 1011.54 1012.20 1012.97 1013.61 1014.17 1014.62 1014.92 1015.29 1015.41 1015.55 1015.66 1015.78 1015.86 1015.91 1015.91 1015.97 1015.87 1015.78 1015.74 1015.70 1015.52 1015.25
1020.56 1021.09 1021.41 1019.89 1018.43 1016.42 1012.91 1012.16 1012.00 1011.84 1011.71 1011.72 1011.17 1010.75 1010.71 1010.53 1010.20 1009.73 1009.62 1009.71 1009.87 1010.16 1010.62 1011.38 1012.09 1012.75 1013.43 1013.87 1014.40 1014.80 1015.17 1015.39 1015.57 1015.74 1015.85 1015.92 1016.01 1016.07 1016.00 1015.91 1015.90 1015.76 1015.57 1015.47
1020.07 1021.34 1021.55 1020.48 1018.89 1015.40 1012.37 1011.80 1011.37 1011.18 1010.49 1009.94 1010.22 1010.49 1010.46 1010.44 1010.35 1009.79 1009.44 1009.08 1009.40 1009.64 1010.06 1010.67 1011.36 1012.21 1012.99 1013.64 1014.15 1014.66 1015.05 1015.30 1015.54 1015.67 1015.77 1015.90 1016.01 1016.09 1016.12 1016.09 1016.03 1015.89 1015.75 1015.62
1020.32 1020.69 1021.24 1020.18 1019.29 1015.94 1012.18 1011.55 1011.44 1011.24 1010.24 1008.86 1008.94 1009.54 1009.89 1010.22 1010.64 1009.70 1009.24 1009.04 1009.10 1009.24 1009.51 1010.15 1010.94 1011.66 1012.50 1013.15 1013.79 1014.49 1014.91 1015.12 1015.31 1015.40 1015.59 1015.71 1015.79 1015.93 1015.97 1015.96 1015.93 1015.75 1015.65 1015.51
1020.06 1020.46 1020.08 1020.01 1018.72 1014.94 1011.50 1011.32 1011.59 1011.49 1009.71 1008.91 1009.00 1009.40 1009.77 1010.12 1009.92 1009.25 1009.18 1009.15 1009.09 1009.12 1009.53 1010.19 1011.01 1011.85 1012.62 1013.24 1013.83 1014.44 1014.67 1014.94 1014.89 1015.03 1015.34 1015.57 1015.66 1015.75 1015.69 1015.66 1015.65 1015.62 1015.55 1015.33
1017.85 1018.50 1018.62 1018.44 1017.14 1013.78 1010.74 1011.46 1011.13 1009.06 1008.52 1008.74 1009.02 1009.10 1009.45 1009.34 1009.30 1009.20 1009.14 1009.22 1009.44 1009.58 1009.69 1010.15 1010.78 1011.54 1012.01 1012.53 1013.12 1013.78 1014.09 1014.16 1014.49 1014.90 1015.22 1015.38 1015.42 1015.45 1015.38 1015.47 1015.48 1015.40 1015.43 1015.24
1015.88 1014.91 1015.05 1014.73 1012.23 1010.13 1009.79 1009.03 1008.68 1008.54 1008.68 1008.77 1008.96 1009.19 1009.34 1009.38 1009.36 1009.24 1009.14 1009.18 1009.40 1009.70 1010.00 1010.38 1011.01 1011.61 1011.89 1012.27 1012.78 1013.48 1013.60 1013.98 1014.33 1014.60 1014.86 1015.06 1015.14 1015.20 1015.19 1015.26 1015.26 1015.23 1015.18 1015.09
1013.98 1013.39 1013.15 1012.54 1009.62 1009.35 1009.11 1008.35 1008.06 1008.10 1008.14 1008.26 1008.38 1008.62 1008.84 1009.13 1009.29 1009.30 1009.14 1009.09 1009.22 1009.38 1009.78 1010.26 1010.91 1011.39 1011.74 1011.88 1012.28 1012.82 1013.22 1013.40 1013.91 1014.44 1014.77 1014.92 1015.02 1015.08 1015.10 1015.09 1015.07 1015.09 1015.05 1014.99
1012.88 1012.49 1011.79 1010.35 1008.73 1008.75 1007.88 1007.18 1006.98 1007.04 1007.04 1007.28 1007.37 1007.72 1008.11 1008.47 1008.55 1008.57 1008.65 1008.72 1008.66 1008.72 1009.11 1009.61 1010.15 1010.66 1011.14 1011.56 1011.94 1012.43 1012.87 1013.25 1013.82 1014.17 1014.37 1014.51 1014.69 1014.92 1015.12 1015.14 1015.02 1014.92 1014.92 1014.88
1011.34 1010.35 1010.71 1008.38 1006.50 1007.29 1006.64 1006.24 1006.27 1006.72 1006.75 1006.71 1007.10 1007.46 1007.58 1007.79 1007.81 1007.97 1008.01 1007.92 1007.97 1008.10 1008.30 1008.91 1009.44 1009.98 1010.49 1011.11 1011.76 1012.18 1012.48 1013.03 1013.61 1014.10 1014.32 1014.49 1014.73 1014.92 1014.98 1014.94 1014.78 1014.61 1014.48 1014.49
Thickness
5581 5560 5566 5573 5573 5572 5570 5567 5572 5582 5587 5580 5579 5583 5589 5594 5591 5587 5580 5575 5571 5566 5563 5563 5564 5566 5569 5571 5567 5566 5570 5575 5579 5588 5591 5597 5608 5620 5627 5635 5639 5641 5645 5645
5573 5562 5568 5568 5567 5566 5567 5559 5572 5583 5580 5570 5576 5581 5591 5594 5586 5573 5561 5554 5549 5553 5550 5547 5549 5546 5544 5541 5536 5540 5548 5554 5558 5564 5573 5578 5589 5603 5614 5619 5626 5631 5634 5636
5568 5564 5563 5561 5564 5570 5573 5572 5565 5550 5563 5576 5573 5581 5592 5587 5580 5570 5551 5541 5535 5536 5534 5531 5530 5524 5521 5518 5517 5519 5522 5534 5543 5548 5552 5560 5571 5585 5596 5604 5615 5619 5622 5625
5564 5559 5559 5560 5566 5572 5567 5567 5559 5556 5550 5537 5560 5541 5580 5579 5575 5557 5537 5528 5526 5524 5519 5515 5512 5505 5499 5497 5499 5502 5506 5512 5522 5529 5535 5544 5554 5570 5591 5596 5604 5605 5610 5615
5562 5563 5562 5562 5568 5566 5567 5566 5559 5557 5546 5547 5566 5534 5574 5567 5557 5545 5533 5524 5520 5517 5513 5506 5499 5491 5484 5479 5481 5483 5488 5496 5500 5509 5518 5528 5544 5561 5577 5582 5588 5601 5600 5605
5566 5564 5560 5565 5564 5563 5564 5561 5557 5559 5548 5542 5562 5547 5560 5549 5544 5537 5529 5524 5519 5516 5512 5504 5492 5483 5472 5466 5464 5467 5474 5476 5480 5490 5503 5515 5532 5548 5563 5578 5582 5591 5590 5593
5568 5568 5566 5562 5562 5567 5563 5552 5559 5549 5549 5543 5563 5542 5567 5559 5554 5537 5531 5525 5519 5518 5516 5506 5494 5480 5470 5461 5455 5458 5462 5461 5463 5484 5497 5512 5527 5544 5556 5572 5580 5582 5584 5585
5558 5550 5566 5565 5566 5563 5564 5552 5550 5545 5543 5550 5564 5551 5570 5571 5558 5548 5537 5532 5521 5519 5514 5506 5497 5483 5473 5466 5455 5451 5454 5455 5461 5474 5489 5500 5513 5529 5543 5554 5564 5565 5567 5570
5561 5569 5575 5569 5573 5568 5567 5554 5558 5546 5555 5550 5563 5587 5581 5577 5567 5558 5551 5547 5533 5532 5520 5511 5502 5491 5483 5470 5463 5459 5458 5459 5464 5474 5483 5491 5501 5517 5528 5539 5549 5550 5553 5555
5569 5551 5582 5574 5573 5571 5566 5564 5551 5542 5552 5549 5571 5575 5571 5572 5568 5571 5564 5555 5549 5540 5530 5522 5511 5498 5488 5479 5473 5469 5469 5469 5472 5479 5486 5493 5501 5514 5523 5532 5539 5542 5542 5546
5571 5566 5573 5579 5571 5573 5559 5558 5558 5559 5553 5545 5549 5569 5601 5575 5575 5572 5571 5568 5561 5548 5540 5531 5522 5510 5499 5490 5487 5483 5484 5484 5485 5489 5495 5501 5508 5515 5523 5529 5532 5534 5537 5540
5573 5567 5551 5579 5591 5587 5579 5576 5573 5537 5563 5553 5553 5569 5612 5598 5588 5583 5580 5579 5572 5560 5549 5542 5532 5524 5516 5511 5507 5503 5501 5499 5498 5500 5503 5508 5512 5517 5521 5525 5528 5532 5535 5535
5575 5564 5544 5578 5581 5581 5574 5579 5574 5571 5543 5542 5546 5579 5615 5605 5598 5594 5588 5583 5575 5569 5559 5549 5540 5533 5526 5520 5516 5514 5511 5510 5511 5513 5513 5517 5520 5521 5525 5531 5530 5533 5534 5533
5569 5569 5566 5552 5583 5580 5575 5580 5578 5565 5533 5560 5577 5598 5611 5611 5605 5601 5595 5589 5583 5572 5562 5553 5546 5540 5533 5528 5525 5522 5519 5515 5516 5519 5519 5522 5524 5526 5529 5531 5531 5532 5532 5532
5566 5562 5569 5571 5582 5582 5581 5581 5579 5569 5573 5565 5602 5596 5606 5604 5603 5608 5607 5599 5589 5578 5569 5559 5551 5543 5538 5535 5531 5527 5525 5522 5522 5522 5521 5521 5523 5526 5527 5529 5530 5531 5531 5532
5573 5558 5568 5567 5589 5588 5590 5594 5590 5589 5589 5587 5587 5591 5608 5608 5610 5609 5613 5604 5596 5589 5580 5572 5563 5554 5545 5538 5534 5531 5529 5527 5527 5526 5525 5525 5524 5525 5525 5525 5525 5526 5525 5525
5574 5562 5556 5563 5588 5590 5590 5618 5610 5604 5606 5601 5589 5614 5608 5607 5610 5607 5605 5604 5599 5593 5587 5577 5566 5557 5550 5544 5539 5534 5530 5529 5527 5525 5524 5522 5521 5520 5520 5520 5519 5518 5519 5519
5573 5570 5560 5554 5576 5572 5625 5625 5619 5617 5617 5612 5613 5613 5611 5609 5609 5610 5610 5605 5602 5598 5592 5582 5571 5563 5555 5549 5542 5537 5532 5528 5525 5523 5520 5519 5517 5515 5514 5513 5513 5512 5511 5511
5575 5560 5547 5547 5563 5598 5628 5619 5618 5615 5618 5624 5618 5614 5611 5610 5602 5602 5607 5607 5602 5599 5593 5583 5574 5565 5555 5547 5541 5535 5530 5526 5523 5520 5518 5515 5512 5509 5507 5505 5504 5503 5501 5500
5564 5560 5547 5560 5554 5581 5629 5619 5618 5616 5601 5632 5626 5618 5613 5609 5590 5600 5607 5603 5604 5601 5595 5585 5576 5567 5557 5549 5541 5533 5528 5523 5520 5518 5514 5510 5508 5504 5501 5499 5496 5495 5492 5490
5547 5552 5540 5538 5532 5581 5624 5612 5608 5599 5615 5623 5621 5614 5607 5596 5594 5606 5604 5602 5600 5596 5588 5579 5569 5559 5551 5543 5536 5529 5525 5520 5518 5513 5508 5504 5500 5497 5494 5491 5488 5486 5483 5480
5557 5541 5536 5539 5545 5561 5614 5599 5593 5614 5625 5617 5612 5610 5605 5602 5601 5600 5598 5593 5589 5586 5582 5575 5566 5558 5551 5544 5536 5528 5522 5520 5513 5507 5501 5497 5493 5490 5487 5483 5480 5477 5472 5468
5576 5588 5580 5580 5594 5618 5607 5611 5613 5616 5612 5610 5606 5603 5600 5596 5595 5593 5591 5587 5582 5578 5572 5567 5558 5551 5546 5539 5532 5524 5520 5514 5507 5502 5496 5491 5487 5483 5479 5475 5470 5465 5461 5456
5592 5593 5583 5590 5619 5615 5613 5614 5616 5613 5610 5607 5605 5602 5599 5593 5588 5586 5585 5584 5580 5575 5569 5563 5554 5547 5541 5536 5531 5523 5517 5512 5504 5496 5489 5485 5480 5475 5470 5465 5460 5453 5446 5440
5595 5593 5588 5595 5612 5608 5617 5622 5623 5619 5616 5612 5609 5605 5599 5592 5590 5588 5584 5582 5580 5575 5569 5562 5555 5548 5541 5533 5526 5519 5512 5504 5496 5489 5483 5478 5472 5464 5456 5450 5444 5437 5430 5423
5602 5604 5580 5602 5623 5610 5620 5624 5623 5616 5614 5611 5606 5600 5597 5592 5588 5586 5583 5581 5580 5576 5569 5560 5553 5546 5539 5529 5519 5512 5505 5497 5487 5478 5472 5465 5457 5449 5441 5434 5427 5422 5415 5405